Location: Azul
(36.7830°S, 59.8500°W)
Time: 02:15:37
(UTC-03:00)

ISS - Pass Details

Date: 19 October 2020
Orbit: 417 x 420 km, 51.6° (Epoch: 28 October)

Event Time Altitude Azimuth Distance (km) Brightness Sun altitude
Rises 21:14:41 0° 262° (W) 2,388 1.2 -21.9°
Reaches altitude 10° 21:17:40 10° 233° (SW) 1,527 0.2 -22.4°
Maximum altitude 21:19:27 13° 202° (SSW) 1,336 -0.5 -22.7°
Drops below altitude 10° 21:21:14 10° 171° (S) 1,532 -0.6 -23.0°
Enters shadow 21:22:50 - 152° (SSE) 1,948 -0.3 -23.2°
